Tracking 20715 objects as of 26-May-2020
HD Live streaming from Space Station
objects crossing your sky now

FLOCK 1C 5

Track FLOCK 1C 5 now!
10-day predictions
FLOCK 1C 5 is classified as:


NORAD ID: 40038
Int'l Code: 2014-033AE
Perigee: 594.1 km
Apogee: 614.1 km
Inclination: 97.9 °
Period: 96.6 minutes
Semi major axis: 6975 km
RCS: Unknown
Launch date: June 19, 2014
Source: United States (US)
Launch site: Orenburg, Russia (OREN)
aabbcc
Your satellite tracking list
Your tracking list is empty




NASA's NSSDC Master Catalog

Two Line Element Set (TLE):
1 40038U 14033AE  20146.78471756 +.00000391 +00000-0 +46121-4 0  9995
2 40038 097.9449 076.8655 0014344 006.4809 353.6592 14.90307181321855
Source of the keplerian elements: AFSPC